Time,TemperatureF,DewpointF,PressureIn,WindDirection,WindDirectionDegrees,WindSpeedMPH,WindSpeedGustMPH,Humidity,HourlyPrecipIn,Conditions,Clouds,dailyrainin,SoftwareType,DateUTC
2013-01-21 00:00:00,21.9,5.6,29.91,WNW,301,5.0,8.1,49,0.00,RA,,0.00,WeatherDisplay:10.37,2013-01-21 05:00:00,
2013-01-21 00:02:00,21.8,5.5,29.91,NNW,330,4.8,9.2,49,0.00,RA,,0.00,WeatherDisplay:10.37,2013-01-21 05:02:00,
2013-01-21 00:03:00,21.8,5.5,29.90,NNW,336,3.4,7.0,49,0.00,RA,,0.00,WeatherDisplay:10.37,2013-01-21 05:03:00,
2013-01-21 00:08:00,21.7,5.0,29.91,NW,311,4.5,9.2,48,0.00,RA,,0.00,WeatherDisplay:10.37,2013-01-21 05:08:00,
2013-01-21 00:13:00,21.6,4.9,29.90,NW,311,5.1,11.5,48,0.00,,,0.00,WeatherDisplay:10.37,2013-01-21 05:13:00,
2013-01-21 00:18:00,21.5,5.3,29.90,WNW,291,4.3,9.2,49,0.00,,,0.00,WeatherDisplay:10.37,2013-01-21 05:18:00,
2013-01-21 00:23:00,21.3,5.1,29.91,West,276,4.1,11.5,49,0.00,,,0.00,WeatherDisplay:10.37,2013-01-21 05:23:00,
2013-01-21 00:28:00,21.3,4.6,29.91,WSW,252,3.7,5.8,48,0.00,,,0.00,WeatherDisplay:10.37,2013-01-21 05:28:00,
2013-01-21 00:33:00,21.2,4.5,29.90,NNW,340,4.9,8.1,48,0.00,,,0.00,WeatherDisplay:10.37,2013-01-21 05:33:00,
2013-01-21 00:38:00,21.2,5.9,29.90,WNW,296,4.7,5.0,51,0.00,,,0.00,WeatherDisplay:10.37,2013-01-21 05:38:00,
2013-01-21 00:43:00,21.1,4.0,29.91,NNW,343,5.0,10.4,47,0.00,,,0.00,WeatherDisplay:10.37,2013-01-21 05:43:00,
2013-01-21 00:48:00,21.0,5.2,29.91,WNW,294,4.1,8.1,50,0.00,,,0.00,WeatherDisplay:10.37,2013-01-21 05:48:00,
2013-01-21 00:53:00,20.9,4.3,29.91,West,266,3.0,6.9,48,0.00,,,0.00,WeatherDisplay:10.37,2013-01-21 05:53:00,
2013-01-21 00:58:00,20.8,3.7,29.91,WNW,294,5.1,11.5,47,0.00,,,0.00,WeatherDisplay:10.37,2013-01-21 05:58:00,
2013-01-21 01:03:00,20.7,3.2,29.92,WNW,288,7.0,11.5,46,0.00,,,0.00,WeatherDisplay:10.37,2013-01-21 06:03:00,
2013-01-21 01:08:00,20.7,3.6,29.91,NNW,330,3.1,13.8,47,0.00,,,0.00,WeatherDisplay:10.37,2013-01-21 06:08:00,
2013-01-21 01:13:00,20.6,3.5,29.92,West,261,4.0,8.1,47,0.00,,,0.00,WeatherDisplay:10.37,2013-01-21 06:13:00,
2013-01-21 01:18:00,20.5,2.5,29.92,NW,313,4.3,6.9,45,0.00,,,0.00,WeatherDisplay:10.37,2013-01-21 06:18:00,
2013-01-21 01:23:00,20.4,3.3,29.92,WNW,284,2.8,4.6,47,0.00,,,0.00,WeatherDisplay:10.37,2013-01-21 06:23:00,
2013-01-21 01:28:00,20.2,2.7,29.92,NW,313,3.5,6.9,46,0.00,,,0.00,WeatherDisplay:10.37,2013-01-21 06:28:00,
2013-01-21 01:33:00,20.2,1.7,29.93,WNW,300,4.8,11.5,44,0.00,,,0.00,WeatherDisplay:10.37,2013-01-21 06:33:00,
2013-01-21 01:38:00,20.1,3.1,29.93,WNW,292,2.2,5.8,47,0.00,,,0.00,WeatherDisplay:10.37,2013-01-21 06:38:00,
2013-01-21 01:43:00,19.9,2.9,29.93,NW,311,2.5,8.0,47,0.00,,,0.00,WeatherDisplay:10.37,2013-01-21 06:43:00,
2013-01-21 01:48:00,19.8,1.8,29.94,West,269,2.7,4.0,45,0.00,,,0.00,WeatherDisplay:10.37,2013-01-21 06:48:00,
2013-01-21 01:53:00,19.7,1.8,29.94,NW,326,4.2,8.1,45,0.00,,,0.00,WeatherDisplay:10.37,2013-01-21 06:53:00,
2013-01-21 01:58:00,19.6,2.1,29.94,WNW,296,2.9,6.9,46,0.00,,,0.00,WeatherDisplay:10.37,2013-01-21 06:58:00,
2013-01-21 02:03:00,19.4,2.9,29.95,NW,312,5.0,8.0,48,0.00,,,0.00,WeatherDisplay:10.37,2013-01-21 07:03:00,
2013-01-21 02:08:00,19.4,1.5,29.95,NW,306,2.4,4.6,45,0.00,,,0.00,WeatherDisplay:10.37,2013-01-21 07:08:00,
2013-01-21 02:13:00,19.1,1.7,29.95,West,261,4.3,5.8,46,0.00,,,0.00,WeatherDisplay:10.37,2013-01-21 07:13:00,
2013-01-21 02:18:00,19.0,2.1,29.96,NNW,345,2.9,3.5,47,0.00,,,0.00,WeatherDisplay:10.37,2013-01-21 07:18:00,
2013-01-21 02:23:00,19.0,1.1,29.96,WNW,297,3.1,6.9,45,0.00,,,0.00,WeatherDisplay:10.37,2013-01-21 07:23:00,
2013-01-21 02:28:00,18.9,1.0,29.96,West,260,3.1,6.9,45,0.00,,,0.00,WeatherDisplay:10.37,2013-01-21 07:28:00,
2013-01-21 02:33:00,18.8,0.9,29.96,SW,236,4.3,5.8,45,0.00,,,0.00,WeatherDisplay:10.37,2013-01-21 07:33:00,
2013-01-21 02:38:00,18.8,0.5,29.96,WNW,292,1.6,4.6,44,0.00,,,0.00,WeatherDisplay:10.37,2013-01-21 07:38:00,
2013-01-21 02:43:00,18.6,1.2,29.96,West,275,1.3,2.3,46,0.00,,,0.00,WeatherDisplay:10.37,2013-01-21 07:43:00,
2013-01-21 02:48:00,18.4,2.4,29.96,WNW,299,2.1,5.8,49,0.00,,,0.00,WeatherDisplay:10.37,2013-01-21 07:48:00,
2013-01-21 02:53:00,18.1,1.7,29.96,NW,306,2.2,3.5,48,0.00,,,0.00,WeatherDisplay:10.37,2013-01-21 07:53:00,
2013-01-21 02:58:00,18.0,0.7,29.96,WNW,296,5.1,5.8,46,0.00,,,0.00,WeatherDisplay:10.37,2013-01-21 07:58:00,
2013-01-21 03:03:00,18.0,2.5,29.96,SW,215,2.7,2.7,50,0.00,,,0.00,WeatherDisplay:10.37,2013-01-21 08:03:00,
2013-01-21 03:08:00,17.9,2.4,29.96,West,259,1.1,3.5,50,0.00,,,0.00,WeatherDisplay:10.37,2013-01-21 08:08:00,
2013-01-21 03:14:00,17.7,2.6,29.96,WNW,297,2.3,4.0,51,0.00,,,0.00,WeatherDisplay:10.37,2013-01-21 08:14:00,
2013-01-21 03:19:00,17.7,2.6,29.96,West,263,2.7,4.0,51,0.00,,,0.00,WeatherDisplay:10.37,2013-01-21 08:19:00,
2013-01-21 03:24:00,17.5,2.0,29.95,NW,304,4.0,6.9,50,0.00,,,0.00,WeatherDisplay:10.37,2013-01-21 08:24:00,
2013-01-21 03:29:00,17.5,2.4,29.95,WNW,296,3.0,5.0,51,0.00,,,0.00,WeatherDisplay:10.37,2013-01-21 08:29:00,
2013-01-21 03:34:00,17.5,2.4,29.95,West,266,4.1,6.9,51,0.00,,,0.00,WeatherDisplay:10.37,2013-01-21 08:34:00,
2013-01-21 03:39:00,17.7,2.2,29.95,WNW,298,2.9,5.8,50,0.00,,,0.00,WeatherDisplay:10.37,2013-01-21 08:39:00,
2013-01-21 03:44:00,17.6,1.2,29.95,NNW,330,4.0,4.6,48,0.00,,,0.00,WeatherDisplay:10.37,2013-01-21 08:44:00,
2013-01-21 03:49:00,17.6,1.7,29.95,SSW,213,4.9,6.9,49,0.00,,,0.00,WeatherDisplay:10.37,2013-01-21 08:49:00,
2013-01-21 03:54:00,17.6,1.7,29.95,NW,323,4.9,8.1,49,0.00,,,0.00,WeatherDisplay:10.37,2013-01-21 08:54:00,
2013-01-21 03:59:00,17.7,1.7,29.96,NW,308,3.7,8.1,49,0.00,,,0.00,WeatherDisplay:10.37,2013-01-21 08:59:00,
2013-01-21 04:04:00,17.7,1.7,29.96,WNW,292,3.5,5.8,49,0.00,,,0.00,WeatherDisplay:10.37,2013-01-21 09:04:00,
2013-01-21 04:09:00,17.6,1.7,29.96,NW,317,2.4,4.0,49,0.00,,,0.00,WeatherDisplay:10.37,2013-01-21 09:09:00,
2013-01-21 04:14:00,17.6,1.2,29.96,NW,304,4.4,5.8,48,0.00,,,0.00,WeatherDisplay:10.37,2013-01-21 09:14:00,
2013-01-21 04:19:00,17.7,1.3,29.96,West,271,3.7,6.9,48,0.00,,,0.00,WeatherDisplay:10.37,2013-01-21 09:19:00,
2013-01-21 04:24:00,17.7,1.7,29.97,NW,305,2.0,5.0,49,0.00,,,0.00,WeatherDisplay:10.37,2013-01-21 09:24:00,
2013-01-21 04:29:00,17.7,1.7,29.97,WNW,298,3.4,5.8,49,0.00,,,0.00,WeatherDisplay:10.37,2013-01-21 09:29:00,
2013-01-21 04:34:00,17.6,1.7,29.97,WNW,294,2.3,3.5,49,0.00,,,0.00,WeatherDisplay:10.37,2013-01-21 09:34:00,
2013-01-21 04:39:00,17.6,1.7,29.97,NNW,329,2.8,5.0,49,0.00,,,0.00,WeatherDisplay:10.37,2013-01-21 09:39:00,
2013-01-21 04:44:00,17.7,1.3,29.97,NW,312,2.3,3.5,48,0.00,,,0.00,WeatherDisplay:10.37,2013-01-21 09:44:00,
2013-01-21 04:49:00,17.7,0.9,29.97,NW,309,4.5,10.4,47,0.00,,,0.00,WeatherDisplay:10.37,2013-01-21 09:49:00,
2013-01-21 04:54:00,17.7,1.3,29.97,WNW,291,4.0,8.1,48,0.00,,,0.00,WeatherDisplay:10.37,2013-01-21 09:54:00,
2013-01-21 04:59:00,17.6,2.5,29.97,WNW,292,2.0,4.0,51,0.00,,,0.00,WeatherDisplay:10.37,2013-01-21 09:59:00,
2013-01-21 05:04:00,17.5,1.6,29.98,NW,306,3.0,3.5,49,0.00,,,0.00,WeatherDisplay:10.37,2013-01-21 10:04:00,
2013-01-21 05:09:00,17.3,2.2,29.98,WNW,285,2.4,3.5,51,0.00,,,0.00,WeatherDisplay:10.37,2013-01-21 10:09:00,
2013-01-21 05:14:00,17.2,2.1,29.97,NW,311,2.4,5.0,51,0.00,,,0.00,WeatherDisplay:10.37,2013-01-21 10:14:00,
2013-01-21 05:19:00,17.2,1.7,29.97,NNW,329,4.0,6.9,50,0.00,,,0.00,WeatherDisplay:10.37,2013-01-21 10:19:00,
2013-01-21 05:24:00,17.2,1.3,29.97,WNW,302,3.3,4.6,49,0.00,,,0.00,WeatherDisplay:10.37,2013-01-21 10:24:00,
2013-01-21 05:29:00,17.2,1.7,29.97,WNW,287,3.6,5.8,50,0.00,,,0.00,WeatherDisplay:10.37,2013-01-21 10:29:00,
2013-01-21 05:34:00,17.0,2.4,29.97,NW,318,3.0,4.0,52,0.00,,,0.00,WeatherDisplay:10.37,2013-01-21 10:34:00,
2013-01-21 05:39:00,16.8,2.6,29.98,West,270,2.9,5.8,53,0.00,,,0.00,WeatherDisplay:10.37,2013-01-21 10:39:00,
2013-01-21 05:44:00,16.8,1.8,29.98,WNW,285,2.9,4.6,51,0.00,,,0.00,WeatherDisplay:10.37,2013-01-21 10:44:00,
2013-01-21 05:49:00,16.9,1.9,29.99,WNW,291,3.5,5.8,51,0.00,,,0.00,WeatherDisplay:10.37,2013-01-21 10:49:00,
2013-01-21 05:54:00,17.0,1.5,29.99,WNW,288,3.9,5.8,50,0.00,,,0.00,WeatherDisplay:10.37,2013-01-21 10:54:00,
2013-01-21 05:59:00,17.1,1.2,29.98,WNW,293,3.6,5.8,49,0.00,,,0.00,WeatherDisplay:10.37,2013-01-21 10:59:00,
2013-01-21 06:04:00,17.1,1.2,29.99,NW,309,2.6,8.1,49,0.00,,,0.00,WeatherDisplay:10.37,2013-01-21 11:04:00,
2013-01-21 06:09:00,17.0,1.5,29.99,WNW,298,4.0,6.9,50,0.00,,,0.00,WeatherDisplay:10.37,2013-01-21 11:09:00,
2013-01-21 06:14:00,17.0,1.1,29.99,WSW,250,2.4,6.0,49,0.00,,,0.00,WeatherDisplay:10.37,2013-01-21 11:14:00,
2013-01-21 06:19:00,16.9,1.0,29.99,WNW,298,1.7,4.6,49,0.00,,,0.00,WeatherDisplay:10.37,2013-01-21 11:19:00,
2013-01-21 06:24:00,16.8,0.9,29.99,WNW,299,2.8,5.8,49,0.00,,,0.00,WeatherDisplay:10.37,2013-01-21 11:24:00,
2013-01-21 06:29:00,16.7,2.1,29.99,NNW,342,3.2,5.8,52,0.00,,,0.00,WeatherDisplay:10.37,2013-01-21 11:29:00,
2013-01-21 06:34:00,16.7,1.7,29.99,West,267,2.2,4.6,51,0.00,,,0.00,WeatherDisplay:10.37,2013-01-21 11:34:00,
2013-01-21 06:39:00,16.6,2.4,29.99,WNW,301,2.0,2.3,53,0.00,,,0.00,WeatherDisplay:10.37,2013-01-21 11:39:00,
2013-01-21 06:44:00,16.5,1.9,29.99,WNW,294,2.5,3.5,52,0.00,,,0.00,WeatherDisplay:10.37,2013-01-21 11:44:00,
2013-01-21 06:49:00,16.4,2.2,30.00,NW,313,1.4,3.5,53,0.00,,,0.00,WeatherDisplay:10.37,2013-01-21 11:49:00,
2013-01-21 06:54:00,16.3,1.7,30.00,WNW,288,2.3,4.6,52,0.00,,,0.00,WeatherDisplay:10.37,2013-01-21 11:54:00,
2013-01-21 06:59:00,16.1,3.1,30.00,NW,307,2.4,3.5,56,0.00,,,0.00,WeatherDisplay:10.37,2013-01-21 11:59:00,
2013-01-21 07:04:00,15.9,3.0,30.00,West,259,2.2,4.0,56,0.00,,,0.00,WeatherDisplay:10.37,2013-01-21 12:04:00,
2013-01-21 07:09:00,15.9,3.0,30.01,WNW,293,2.3,3.5,56,0.00,,,0.00,WeatherDisplay:10.37,2013-01-21 12:09:00,
2013-01-21 07:14:00,15.9,2.2,30.01,West,265,2.7,4.6,54,0.00,,,0.00,WeatherDisplay:10.37,2013-01-21 12:14:00,
2013-01-21 07:19:00,16.1,2.7,30.01,WNW,286,1.3,2.3,55,0.00,,,0.00,WeatherDisplay:10.37,2013-01-21 12:19:00,
2013-01-21 07:24:00,16.0,2.3,30.01,NW,311,1.9,3.5,54,0.00,,,0.00,WeatherDisplay:10.37,2013-01-21 12:24:00,
2013-01-21 07:29:00,15.9,2.6,30.01,NW,311,2.8,3.5,55,0.00,,,0.00,WeatherDisplay:10.37,2013-01-21 12:29:00,
2013-01-21 07:34:00,16.0,2.7,30.01,WNW,296,2.1,3.5,55,0.00,CLR,,0.00,WeatherDisplay:10.37,2013-01-21 12:34:00,
2013-01-21 07:39:00,16.1,1.9,30.01,West,264,2.8,5.8,53,0.00,CLR,,0.00,WeatherDisplay:10.37,2013-01-21 12:39:00,
2013-01-21 07:44:00,16.2,2.8,30.01,NW,305,2.1,3.5,55,0.00,CLR,,0.00,WeatherDisplay:10.37,2013-01-21 12:44:00,
2013-01-21 07:49:00,16.3,2.1,30.01,WNW,290,3.3,5.8,53,0.00,CLR,,0.00,WeatherDisplay:10.37,2013-01-21 12:49:00,
2013-01-21 07:54:00,16.4,2.6,30.01,WNW,290,1.7,2.3,54,0.00,CLR,,0.00,WeatherDisplay:10.37,2013-01-21 12:54:00,
2013-01-21 07:59:00,16.4,2.2,30.01,NW,323,1.4,3.5,53,0.00,CLR,,0.00,WeatherDisplay:10.37,2013-01-21 12:59:00,
2013-01-21 08:04:00,16.5,2.3,30.01,WNW,296,1.3,2.3,53,0.00,CLR,,0.00,WeatherDisplay:10.37,2013-01-21 13:04:00,
2013-01-21 08:09:00,16.5,2.3,30.02,WSW,257,1.9,3.5,53,0.00,CLR,,0.00,WeatherDisplay:10.37,2013-01-21 13:09:00,
2013-01-21 08:14:00,16.4,3.0,30.02,NW,308,0.0,0.0,55,0.00,CLR,,0.00,WeatherDisplay:10.37,2013-01-21 13:14:00,
2013-01-21 08:19:00,16.3,2.9,30.02,WNW,297,1.1,3.5,55,0.00,CLR,,0.00,WeatherDisplay:10.37,2013-01-21 13:19:00,
2013-01-21 08:24:00,16.5,2.7,30.02,West,271,0.1,2.3,54,0.00,CLR,,0.00,WeatherDisplay:10.37,2013-01-21 13:24:00,
2013-01-21 08:29:00,16.6,2.8,30.02,West,281,1.1,2.3,54,0.00,CLR,,0.00,WeatherDisplay:10.37,2013-01-21 13:29:00,
2013-01-21 08:34:00,16.6,2.8,30.02,WNW,302,1.7,3.5,54,0.00,CLR,,0.00,WeatherDisplay:10.37,2013-01-21 13:34:00,
2013-01-21 08:39:00,16.5,2.7,30.02,NW,311,1.0,4.6,54,0.00,CLR,,0.00,WeatherDisplay:10.37,2013-01-21 13:39:00,
2013-01-21 08:44:00,16.8,2.6,30.02,NW,321,1.5,3.5,53,0.00,CLR,,0.00,WeatherDisplay:10.37,2013-01-21 13:44:00,
2013-01-21 08:49:00,17.1,2.1,30.02,NNW,341,3.1,5.8,51,0.00,CLR,,0.00,WeatherDisplay:10.37,2013-01-21 13:49:00,
2013-01-21 08:54:00,17.6,2.1,30.02,NW,319,3.2,5.0,50,0.00,CLR,,0.00,WeatherDisplay:10.37,2013-01-21 13:54:00,
2013-01-21 08:59:00,17.9,2.4,30.02,NNW,336,1.6,3.5,50,0.00,CLR,,0.00,WeatherDisplay:10.37,2013-01-21 13:59:00,
2013-01-21 09:04:00,18.2,2.6,30.02,West,271,3.2,6.9,50,0.00,CLR,,0.00,WeatherDisplay:10.37,2013-01-21 14:04:00,
2013-01-21 09:09:00,18.4,2.0,30.02,West,278,4.1,6.9,48,0.00,CLR,,0.00,WeatherDisplay:10.37,2013-01-21 14:09:00,
2013-01-21 09:14:00,18.6,2.1,30.02,NW,315,2.9,4.0,48,0.00,CLR,,0.00,WeatherDisplay:10.37,2013-01-21 14:14:00,
2013-01-21 09:19:00,18.8,1.4,30.02,West,269,4.5,6.9,46,0.00,CLR,,0.00,WeatherDisplay:10.37,2013-01-21 14:19:00,
2013-01-21 09:24:00,18.9,1.5,30.02,West,273,3.7,5.8,46,0.00,CLR,,0.00,WeatherDisplay:10.37,2013-01-21 14:24:00,
2013-01-21 09:29:00,19.1,1.2,30.02,WNW,284,2.4,5.8,45,0.00,CLR,,0.00,WeatherDisplay:10.37,2013-01-21 14:29:00,
2013-01-21 09:35:00,19.3,1.4,30.02,West,281,2.0,7.0,45,0.00,,,0.00,WeatherDisplay:10.37,2013-01-21 14:35:00,
2013-01-21 09:40:00,19.5,1.6,30.03,WNW,301,3.0,7.0,45,0.00,,,0.00,WeatherDisplay:10.37,2013-01-21 14:40:00,
2013-01-21 09:45:00,19.8,1.8,30.03,NW,308,3.0,8.0,45,0.00,,,0.00,WeatherDisplay:10.37,2013-01-21 14:45:00,
2013-01-21 09:50:00,20.0,2.0,30.03,WNW,300,2.0,7.0,45,0.00,,,0.00,WeatherDisplay:10.37,2013-01-21 14:50:00,
2013-01-21 09:55:00,20.0,3.0,30.03,West,281,1.0,8.0,47,0.00,,,0.00,WeatherDisplay:10.37,2013-01-21 14:55:00,
2013-01-21 10:00:00,20.1,2.6,30.03,West,280,2.0,9.0,46,0.00,,,0.00,WeatherDisplay:10.37,2013-01-21 15:00:00,
2013-01-21 10:05:00,20.2,2.2,30.04,WNW,286,2.0,9.0,45,0.00,,,0.00,WeatherDisplay:10.37,2013-01-21 15:05:00,
2013-01-21 10:10:00,20.3,2.8,30.04,WNW,300,2.0,5.0,46,0.00,,,0.00,WeatherDisplay:10.37,2013-01-21 15:10:00,
2013-01-21 10:15:00,20.4,2.4,30.03,NW,312,1.0,5.0,45,0.00,,,0.00,WeatherDisplay:10.37,2013-01-21 15:15:00,
2013-01-21 10:20:00,20.4,3.3,30.03,WNW,303,2.0,4.0,47,0.00,,,0.00,WeatherDisplay:10.37,2013-01-21 15:20:00,
2013-01-21 10:25:00,20.5,3.4,30.02,WNW,290,1.0,4.0,47,0.00,,,0.00,WeatherDisplay:10.37,2013-01-21 15:25:00,
2013-01-21 10:30:00,20.6,3.1,30.02,WNW,303,1.0,4.0,46,0.00,,,0.00,WeatherDisplay:10.37,2013-01-21 15:30:00,
2013-01-21 10:35:00,20.8,3.8,30.02,NW,325,2.0,5.0,47,0.00,,,0.00,WeatherDisplay:10.37,2013-01-21 15:35:00,
2013-01-21 10:40:00,21.1,3.5,30.01,NW,318,5.0,9.0,46,0.00,,,0.00,WeatherDisplay:10.37,2013-01-21 15:40:00,
2013-01-21 10:45:00,21.3,3.2,30.01,WNW,303,2.0,12.0,45,0.00,,,0.00,WeatherDisplay:10.37,2013-01-21 15:45:00,
2013-01-21 10:50:00,21.6,4.4,30.01,NW,310,1.0,5.0,47,0.00,,,0.00,WeatherDisplay:10.37,2013-01-21 15:50:00,
2013-01-21 10:55:00,21.6,4.0,30.01,NW,309,1.0,5.0,46,0.00,,,0.00,WeatherDisplay:10.37,2013-01-21 15:55:00,
2013-01-21 11:00:00,21.8,4.2,30.01,WNW,299,1.0,3.0,46,0.00,,,0.00,WeatherDisplay:10.37,2013-01-21 16:00:00,
2013-01-21 11:05:00,22.0,5.3,30.00,WNW,288,1.0,4.0,48,0.00,,,0.00,WeatherDisplay:10.37,2013-01-21 16:05:00,
2013-01-21 11:10:00,22.0,6.6,30.00,WNW,285,1.0,3.0,51,0.00,,,0.00,WeatherDisplay:10.37,2013-01-21 16:10:00,
2013-01-21 11:15:00,22.1,5.4,30.00,NNW,332,1.0,6.0,48,0.00,,,0.00,WeatherDisplay:10.37,2013-01-21 16:15:00,
2013-01-21 11:20:00,22.3,4.6,30.00,NW,310,3.3,3.5,46,0.00,,,0.00,WeatherDisplay:10.37,2013-01-21 16:20:00,
2013-01-21 11:25:00,22.3,5.1,29.99,NNW,329,0.9,2.3,47,0.00,,,0.00,WeatherDisplay:10.37,2013-01-21 16:25:00,
2013-01-21 11:30:00,22.4,5.2,29.99,NW,315,1.6,3.5,47,0.00,,,0.00,WeatherDisplay:10.37,2013-01-21 16:30:00,
2013-01-21 11:35:00,22.5,4.8,29.99,NW,316,2.6,6.9,46,0.00,,,0.00,WeatherDisplay:10.37,2013-01-21 16:35:00,
2013-01-21 11:40:00,22.6,4.9,29.98,WNW,299,2.3,3.5,46,0.00,,,0.00,WeatherDisplay:10.37,2013-01-21 16:40:00,
2013-01-21 11:45:00,22.8,4.6,29.98,West,267,2.2,3.5,45,0.00,,,0.00,WeatherDisplay:10.37,2013-01-21 16:45:00,
2013-01-21 11:50:00,22.8,6.0,29.97,NE,39,2.0,3.5,48,0.00,,,0.00,WeatherDisplay:10.37,2013-01-21 16:50:00,
2013-01-21 11:55:00,22.9,5.2,29.97,NNW,346,1.5,2.3,46,0.00,,,0.00,WeatherDisplay:10.37,2013-01-21 16:55:00,
2013-01-21 12:00:00,23.2,5.9,29.97,West,276,2.3,6.0,47,0.00,,,0.00,WeatherDisplay:10.37,2013-01-21 17:00:00,
2013-01-21 12:05:00,23.3,5.5,29.97,WNW,300,1.0,7.0,46,0.00,,,0.00,WeatherDisplay:10.37,2013-01-21 17:05:00,
2013-01-21 12:10:00,23.2,5.0,29.96,WNW,295,0.0,2.0,45,0.00,,,0.00,WeatherDisplay:10.37,2013-01-21 17:10:00,
2013-01-21 12:15:00,23.4,6.1,29.96,WNW,285,1.0,3.0,47,0.00,,,0.00,WeatherDisplay:10.37,2013-01-21 17:15:00,
2013-01-21 12:20:00,23.6,6.3,29.96,NW,323,0.0,2.0,47,0.00,,,0.00,WeatherDisplay:10.37,2013-01-21 17:20:00,
2013-01-21 12:25:00,23.8,6.0,29.96,NNE,22,1.0,3.0,46,0.00,,,0.00,WeatherDisplay:10.37,2013-01-21 17:25:00,
2013-01-21 12:30:00,24.0,5.7,29.95,NE,52,1.0,4.0,45,0.00,,,0.00,WeatherDisplay:10.37,2013-01-21 17:30:00,
2013-01-21 12:35:00,24.0,5.7,29.95,South,187,1.0,4.0,45,0.00,,,0.00,WeatherDisplay:10.37,2013-01-21 17:35:00,
2013-01-21 12:40:00,23.9,5.1,29.95,West,273,1.0,4.0,44,0.00,,,0.00,WeatherDisplay:10.37,2013-01-21 17:40:00,
2013-01-21 12:45:00,23.9,5.1,29.94,NW,308,2.0,5.0,44,0.00,,,0.00,WeatherDisplay:10.37,2013-01-21 17:45:00,
2013-01-21 12:50:00,24.1,5.8,29.95,NW,308,2.0,5.0,45,0.00,,,0.00,WeatherDisplay:10.37,2013-01-21 17:50:00,
2013-01-21 12:55:00,24.2,6.8,29.94,NW,309,1.0,5.0,47,0.00,,,0.00,WeatherDisplay:10.37,2013-01-21 17:55:00,
2013-01-21 13:00:00,24.4,5.6,29.94,NW,316,0.0,3.0,44,0.00,,,0.00,WeatherDisplay:10.37,2013-01-21 18:00:00,
2013-01-21 13:05:00,24.5,5.7,29.94,NW,305,2.0,4.0,44,0.00,,,0.00,WeatherDisplay:10.37,2013-01-21 18:05:00,
2013-01-21 13:10:00,24.5,5.7,29.94,WNW,287,1.0,2.0,44,0.00,,,0.00,WeatherDisplay:10.37,2013-01-21 18:10:00,
2013-01-21 13:15:00,24.5,8.0,29.94,West,270,0.0,4.0,49,0.00,,,0.00,WeatherDisplay:10.37,2013-01-21 18:15:00,
2013-01-21 13:20:00,24.4,6.1,29.93,NW,306,1.0,5.0,45,0.00,,,0.00,WeatherDisplay:10.37,2013-01-21 18:20:00,
2013-01-21 13:25:00,24.4,7.5,29.93,NNW,343,1.0,4.0,48,0.00,,,0.00,WeatherDisplay:10.37,2013-01-21 18:25:00,
2013-01-21 13:30:00,24.4,6.1,29.93,WNW,299,2.0,6.0,45,0.00,,,0.00,WeatherDisplay:10.37,2013-01-21 18:30:00,
2013-01-21 13:35:00,24.4,6.5,29.93,WNW,287,1.0,3.0,46,0.00,,,0.00,WeatherDisplay:10.37,2013-01-21 18:35:00,
2013-01-21 13:40:00,24.4,6.1,29.93,WNW,294,2.0,4.0,45,0.00,,,0.00,WeatherDisplay:10.37,2013-01-21 18:40:00,
2013-01-21 13:45:00,24.6,6.3,29.93,NW,304,0.0,4.0,45,0.00,,,0.00,WeatherDisplay:10.37,2013-01-21 18:45:00,
2013-01-21 13:50:00,24.7,6.3,29.93,NW,316,1.0,4.0,45,0.00,,,0.00,WeatherDisplay:10.37,2013-01-21 18:50:00,
2013-01-21 13:55:00,24.9,6.0,29.93,NW,324,0.0,3.0,44,0.00,,,0.00,WeatherDisplay:10.37,2013-01-21 18:55:00,
2013-01-21 14:00:00,25.1,6.7,29.93,NW,320,3.0,8.0,45,0.00,,,0.00,WeatherDisplay:10.37,2013-01-21 19:00:00,
2013-01-21 14:05:00,25.1,6.7,29.92,NW,312,1.0,4.0,45,0.00,,,0.00,WeatherDisplay:10.37,2013-01-21 19:05:00,
2013-01-21 14:10:00,25.2,6.8,29.92,NNW,339,0.0,2.0,45,0.00,,,0.00,WeatherDisplay:10.37,2013-01-21 19:10:00,
2013-01-21 14:15:00,25.4,7.5,29.92,NW,320,0.0,3.0,46,0.00,,,0.00,WeatherDisplay:10.37,2013-01-21 19:15:00,
2013-01-21 14:20:00,25.5,7.6,29.92,NW,310,0.0,4.0,46,0.00,,,0.00,WeatherDisplay:10.37,2013-01-21 19:20:00,
2013-01-21 14:25:00,25.7,8.6,29.92,NW,315,1.0,4.0,48,0.00,,,0.00,WeatherDisplay:10.37,2013-01-21 19:25:00,
2013-01-21 14:30:00,25.6,7.2,29.92,NW,309,0.0,2.0,45,0.00,,,0.00,WeatherDisplay:10.37,2013-01-21 19:30:00,
2013-01-21 14:35:00,25.8,8.8,29.92,NW,317,1.0,2.0,48,0.00,,,0.00,WeatherDisplay:10.37,2013-01-21 19:35:00,
2013-01-21 14:40:00,25.7,7.7,29.92,ENE,73,0.0,2.0,46,0.00,,,0.00,WeatherDisplay:10.37,2013-01-21 19:40:00,
2013-01-21 14:45:00,25.7,7.7,29.92,NE,55,1.0,2.0,46,0.00,,,0.00,WeatherDisplay:10.37,2013-01-21 19:45:00,
2013-01-21 14:50:00,25.7,8.2,29.92,NW,326,1.1,2.0,47,0.00,,,0.00,WeatherDisplay:10.37,2013-01-21 19:50:00,
2013-01-21 14:55:00,25.6,6.7,29.92,NNW,329,0.4,2.3,44,0.00,,,0.00,WeatherDisplay:10.37,2013-01-21 19:55:00,
2013-01-21 15:00:00,25.6,9.1,29.91,WNW,293,0.0,0.0,49,0.00,,,0.00,WeatherDisplay:10.37,2013-01-21 20:00:00,
2013-01-21 15:05:00,25.6,9.1,29.91,WNW,298,0.8,0.0,49,0.00,,,0.00,WeatherDisplay:10.37,2013-01-21 20:05:00,
2013-01-21 15:10:00,25.5,8.5,29.91,West,277,0.0,0.0,48,0.00,,,0.00,WeatherDisplay:10.37,2013-01-21 20:10:00,
2013-01-21 15:15:00,25.4,7.5,29.91,NNW,338,1.2,2.3,46,0.00,,,0.00,WeatherDisplay:10.37,2013-01-21 20:15:00,
2013-01-21 15:20:00,25.3,8.3,29.91,NW,323,0.6,1.0,48,0.00,,,0.00,WeatherDisplay:10.37,2013-01-21 20:20:00,
2013-01-21 15:25:00,25.2,8.2,29.91,WNW,302,1.9,3.5,48,0.00,,,0.00,WeatherDisplay:10.37,2013-01-21 20:25:00,
2013-01-21 15:30:00,25.1,9.0,29.91,NW,312,0.0,1.0,50,0.00,,,0.00,WeatherDisplay:10.37,2013-01-21 20:30:00,
2013-01-21 15:35:00,25.1,9.0,29.91,NNW,342,0.0,0.0,50,0.00,,,0.00,WeatherDisplay:10.37,2013-01-21 20:35:00,
2013-01-21 15:40:00,25.0,9.0,29.91,NNW,345,0.0,1.0,50,0.00,,,0.00,WeatherDisplay:10.37,2013-01-21 20:40:00,
2013-01-21 15:45:00,25.0,9.0,29.91,NNW,348,0.0,2.0,50,0.00,,,0.00,WeatherDisplay:10.37,2013-01-21 20:45:00,
2013-01-21 15:50:00,24.9,9.8,29.90,NNW,344,0.0,0.0,52,0.00,,,0.00,WeatherDisplay:10.37,2013-01-21 20:50:00,
2013-01-21 15:55:00,24.9,9.7,29.90,NNW,344,0.0,2.0,52,0.00,,,0.00,WeatherDisplay:10.37,2013-01-21 20:55:00,
2013-01-21 16:00:00,24.8,10.5,29.90,NNW,334,0.0,3.0,54,0.00,,,0.00,WeatherDisplay:10.37,2013-01-21 21:00:00,
2013-01-21 16:05:00,24.5,10.7,29.90,NNW,347,1.0,3.0,55,0.00,,,0.00,WeatherDisplay:10.37,2013-01-21 21:05:00,
2013-01-21 16:10:00,24.4,10.9,29.90,North,350,1.0,3.0,56,0.00,,,0.00,WeatherDisplay:10.37,2013-01-21 21:10:00,
2013-01-21 16:15:00,24.2,11.5,29.90,NW,320,0.0,2.0,58,0.00,,,0.00,WeatherDisplay:10.37,2013-01-21 21:15:00,
2013-01-21 16:20:00,24.1,11.1,29.90,NNW,348,0.0,3.0,57,0.00,,,0.00,WeatherDisplay:10.37,2013-01-21 21:20:00,
2013-01-21 16:25:00,24.0,11.3,29.90,NNE,12,0.0,3.0,58,0.00,,,0.00,WeatherDisplay:10.37,2013-01-21 21:25:00,
2013-01-21 16:30:00,23.8,11.9,29.90,North,351,0.0,3.0,60,0.00,,,0.00,WeatherDisplay:10.37,2013-01-21 21:30:00,
2013-01-21 16:35:00,23.6,12.1,29.90,NW,313,0.0,4.0,61,0.00,,,0.00,WeatherDisplay:10.37,2013-01-21 21:35:00,
2013-01-21 16:40:00,23.5,12.4,29.90,NW,316,1.0,3.0,62,0.00,,,0.00,WeatherDisplay:10.37,2013-01-21 21:40:00,
2013-01-21 16:45:00,23.4,12.3,29.91,North,350,1.0,2.0,62,0.00,,,0.00,WeatherDisplay:10.37,2013-01-21 21:45:00,
2013-01-21 16:50:00,23.3,11.8,29.91,North,357,0.0,2.0,61,0.00,,,0.00,WeatherDisplay:10.37,2013-01-21 21:50:00,
2013-01-21 16:55:00,23.2,11.7,29.91,North,353,0.0,1.0,61,0.00,,,0.00,WeatherDisplay:10.37,2013-01-21 21:55:00,
2013-01-21 17:00:00,23.1,11.6,29.91,NNE,21,0.0,0.0,61,0.00,,,0.00,WeatherDisplay:10.37,2013-01-21 22:00:00,
2013-01-21 17:05:00,23.1,12.7,29.90,NNE,21,0.0,1.0,64,0.00,,,0.00,WeatherDisplay:10.37,2013-01-21 22:05:00,
2013-01-21 17:10:00,23.1,13.1,29.90,NNE,22,0.0,1.0,65,0.00,,,0.00,WeatherDisplay:10.37,2013-01-21 22:10:00,
2013-01-21 17:15:00,23.0,14.0,29.90,NNE,24,0.0,0.0,68,0.00,,,0.00,WeatherDisplay:10.37,2013-01-21 22:15:00,
2013-01-21 17:20:00,22.9,14.6,29.91,NNE,24,0.0,0.0,70,0.00,,,0.00,WeatherDisplay:10.37,2013-01-21 22:20:00,
2013-01-21 17:25:00,22.7,15.3,29.91,NNE,24,0.0,0.0,73,0.00,,,0.00,WeatherDisplay:10.37,2013-01-21 22:25:00,
2013-01-21 17:30:00,22.5,15.4,29.90,NNE,24,0.0,0.0,74,0.00,,,0.00,WeatherDisplay:10.37,2013-01-21 22:30:00,
2013-01-21 17:35:00,22.2,15.5,29.90,NNE,24,0.0,0.0,75,0.00,,,0.00,WeatherDisplay:10.37,2013-01-21 22:35:00,
2013-01-21 17:40:00,22.1,15.6,29.90,NNE,24,0.0,0.0,76,0.00,,,0.00,WeatherDisplay:10.37,2013-01-21 22:40:00,
2013-01-21 17:45:00,21.9,15.8,29.91,NNE,24,0.0,0.0,77,0.00,,,0.00,WeatherDisplay:10.37,2013-01-21 22:45:00,
2013-01-21 17:50:00,21.8,16.3,29.91,NNE,24,0.0,0.0,79,0.00,,,0.00,WeatherDisplay:10.37,2013-01-21 22:50:00,
2013-01-21 17:55:00,21.6,16.4,29.90,NNE,24,0.0,0.0,80,0.00,,,0.00,WeatherDisplay:10.37,2013-01-21 22:55:00,
2013-01-21 18:00:00,21.5,16.6,29.91,NNE,24,0.0,0.0,81,0.00,,,0.00,WeatherDisplay:10.37,2013-01-21 23:00:00,
2013-01-21 18:05:00,21.4,16.8,29.91,NNE,24,0.0,0.0,82,0.00,,,0.00,WeatherDisplay:10.37,2013-01-21 23:05:00,
2013-01-21 18:10:00,21.3,16.9,29.91,NNE,24,0.0,0.0,83,0.00,,,0.00,WeatherDisplay:10.37,2013-01-21 23:10:00,
2013-01-21 18:15:00,21.3,16.9,29.91,NNE,24,0.0,0.0,83,0.00,,,0.00,WeatherDisplay:10.37,2013-01-21 23:15:00,
2013-01-21 18:20:00,21.2,17.1,29.91,NNE,24,0.0,0.0,84,0.00,,,0.00,WeatherDisplay:10.37,2013-01-21 23:20:00,
2013-01-21 18:25:00,21.1,17.3,29.91,NNE,24,0.0,0.0,85,0.00,,,0.00,WeatherDisplay:10.37,2013-01-21 23:25:00,
2013-01-21 18:30:00,21.0,17.5,29.91,NNE,24,0.0,0.0,86,0.00,,,0.00,WeatherDisplay:10.37,2013-01-21 23:30:00,
2013-01-21 18:35:00,21.0,17.5,29.91,NNE,24,0.0,0.0,86,0.00,,,0.00,WeatherDisplay:10.37,2013-01-21 23:35:00,
2013-01-21 18:40:00,20.9,17.6,29.91,NNE,24,0.0,0.0,87,0.00,,,0.00,WeatherDisplay:10.37,2013-01-21 23:40:00,
2013-01-21 18:45:00,20.9,17.6,29.91,NNE,24,0.0,0.0,87,0.00,,,0.00,WeatherDisplay:10.37,2013-01-21 23:45:00,
2013-01-21 18:50:00,20.9,17.6,29.91,NNE,24,0.0,0.0,87,0.00,,,0.00,WeatherDisplay:10.37,2013-01-21 23:50:00,
2013-01-21 18:55:00,20.9,17.9,29.91,NNE,24,0.0,0.0,88,0.00,,,0.00,WeatherDisplay:10.37,2013-01-21 23:55:00,
2013-01-21 19:00:00,20.8,17.8,29.91,NNE,24,0.0,0.0,88,0.00,,,0.00,WeatherDisplay:10.37,2013-01-22 00:00:00,
2013-01-21 19:05:00,20.8,17.8,29.91,NNE,24,0.0,0.0,88,0.00,,,0.00,WeatherDisplay:10.37,2013-01-22 00:05:00,
2013-01-21 19:10:00,20.8,17.8,29.91,NNE,24,0.0,0.0,88,0.00,,,0.00,WeatherDisplay:10.37,2013-01-22 00:10:00,
2013-01-21 19:15:00,20.8,17.8,29.91,NNE,24,0.0,0.0,88,0.00,,,0.00,WeatherDisplay:10.37,2013-01-22 00:15:00,
2013-01-21 19:20:00,20.8,17.8,29.91,NNE,24,0.0,0.0,88,0.00,,,0.00,WeatherDisplay:10.37,2013-01-22 00:20:00,
2013-01-21 19:25:00,20.8,18.1,29.91,NNE,24,0.0,0.0,89,0.00,,,0.00,WeatherDisplay:10.37,2013-01-22 00:25:00,
2013-01-21 19:30:00,20.8,18.1,29.91,NNE,24,0.0,0.0,89,0.00,,,0.00,WeatherDisplay:10.37,2013-01-22 00:30:00,
2013-01-21 19:35:00,20.8,18.1,29.91,NNE,24,0.0,0.0,89,0.00,,,0.00,WeatherDisplay:10.37,2013-01-22 00:35:00,
2013-01-21 19:40:00,20.8,18.1,29.91,NNE,24,0.0,0.0,89,0.00,,,0.00,WeatherDisplay:10.37,2013-01-22 00:40:00,
2013-01-21 19:45:00,20.8,18.1,29.91,NNE,24,0.0,0.0,89,0.00,,,0.00,WeatherDisplay:10.37,2013-01-22 00:45:00,
2013-01-21 19:50:00,20.8,18.1,29.90,NNE,24,0.0,0.0,89,0.00,,,0.00,WeatherDisplay:10.37,2013-01-22 00:50:00,
2013-01-21 19:55:00,20.8,18.1,29.90,NNE,24,0.0,0.0,89,0.00,,,0.00,WeatherDisplay:10.37,2013-01-22 00:55:00,
2013-01-21 20:00:00,20.8,18.1,29.90,NNE,24,0.0,0.0,89,0.00,,,0.00,WeatherDisplay:10.37,2013-01-22 01:00:00,
2013-01-21 20:05:00,20.8,18.1,29.90,NNE,24,0.0,0.0,89,0.00,,,0.00,WeatherDisplay:10.37,2013-01-22 01:05:00,
2013-01-21 20:10:00,20.7,18.2,29.90,NNE,24,0.0,0.0,90,0.00,,,0.00,WeatherDisplay:10.37,2013-01-22 01:10:00,
2013-01-21 20:15:00,20.7,18.2,29.90,NNE,24,0.0,0.0,90,0.00,,,0.00,WeatherDisplay:10.37,2013-01-22 01:15:00,
2013-01-21 20:20:00,20.7,18.2,29.90,NNE,24,0.0,0.0,90,0.00,,,0.00,WeatherDisplay:10.37,2013-01-22 01:20:00,
2013-01-21 20:25:00,20.6,18.1,29.89,NNE,24,0.0,0.0,90,0.00,,,0.00,WeatherDisplay:10.37,2013-01-22 01:25:00,
2013-01-21 20:30:00,20.6,18.1,29.89,NNE,24,0.0,0.0,90,0.00,,,0.00,WeatherDisplay:10.37,2013-01-22 01:30:00,
2013-01-21 20:35:00,20.6,18.1,29.89,NNE,24,0.0,0.0,90,0.00,,,0.00,WeatherDisplay:10.37,2013-01-22 01:35:00,
2013-01-21 20:40:00,20.6,18.1,29.88,NNE,24,0.0,0.0,90,0.00,,,0.00,WeatherDisplay:10.37,2013-01-22 01:40:00,
2013-01-21 20:45:00,20.4,17.9,29.88,NNE,24,0.0,0.0,90,0.00,,,0.00,WeatherDisplay:10.37,2013-01-22 01:45:00,
2013-01-21 20:50:00,20.4,17.9,29.88,NNE,24,0.0,0.0,90,0.00,,,0.00,WeatherDisplay:10.37,2013-01-22 01:50:00,
2013-01-21 20:55:00,20.2,17.7,29.88,NNE,24,0.0,0.0,90,0.00,,,0.00,WeatherDisplay:10.37,2013-01-22 01:55:00,
2013-01-21 21:00:00,20.2,17.7,29.87,NNE,24,0.0,0.0,90,0.00,,,0.00,WeatherDisplay:10.37,2013-01-22 02:00:00,
2013-01-21 21:05:00,20.1,17.6,29.87,NNE,24,0.0,0.0,90,0.00,,,0.00,WeatherDisplay:10.37,2013-01-22 02:05:00,
2013-01-21 21:10:00,20.0,17.5,29.87,NNE,24,0.0,0.0,90,0.00,,,0.00,WeatherDisplay:10.37,2013-01-22 02:10:00,
2013-01-21 21:15:00,19.9,17.4,29.87,NNE,24,0.0,0.0,90,0.00,,,0.00,WeatherDisplay:10.37,2013-01-22 02:15:00,
2013-01-21 21:20:00,19.8,17.3,29.86,NNE,24,0.0,0.0,90,0.00,,,0.00,WeatherDisplay:10.37,2013-01-22 02:20:00,
2013-01-21 21:25:00,19.7,17.2,29.86,NNE,24,0.0,0.0,90,0.00,,,0.00,WeatherDisplay:10.37,2013-01-22 02:25:00,
2013-01-21 21:30:00,19.5,16.8,29.86,NNE,24,0.0,0.0,89,0.00,,,0.00,WeatherDisplay:10.37,2013-01-22 02:30:00,
2013-01-21 21:35:00,19.3,16.6,29.86,NNE,24,0.0,0.0,89,0.00,,,0.00,WeatherDisplay:10.37,2013-01-22 02:35:00,
2013-01-21 21:40:00,19.1,16.4,29.86,NNE,24,0.0,0.0,89,0.00,,,0.00,WeatherDisplay:10.37,2013-01-22 02:40:00,
2013-01-21 21:45:00,18.9,16.2,29.85,NNE,24,0.0,0.0,89,0.00,,,0.00,WeatherDisplay:10.37,2013-01-22 02:45:00,
2013-01-21 21:50:00,18.8,16.4,29.85,NNE,24,0.0,0.0,90,0.00,,,0.00,WeatherDisplay:10.37,2013-01-22 02:50:00,
2013-01-21 21:55:00,18.7,16.3,29.85,NNE,24,0.0,0.0,90,0.00,,,0.00,WeatherDisplay:10.37,2013-01-22 02:55:00,
2013-01-21 22:00:00,18.7,16.3,29.85,NNE,24,0.0,0.0,90,0.00,,,0.00,WeatherDisplay:10.37,2013-01-22 03:00:00,
2013-01-21 22:05:00,18.6,16.2,29.84,NNE,24,0.0,0.0,90,0.00,,,0.00,WeatherDisplay:10.37,2013-01-22 03:05:00,
2013-01-21 22:10:00,18.6,16.4,29.84,NNE,24,0.0,0.0,91,0.00,,,0.00,WeatherDisplay:10.37,2013-01-22 03:10:00,
2013-01-21 22:15:00,18.7,16.5,29.84,NNE,24,0.0,0.0,91,0.00,,,0.00,WeatherDisplay:10.37,2013-01-22 03:15:00,
2013-01-21 22:20:00,18.8,16.6,29.84,NNE,24,0.0,0.0,91,0.00,,,0.00,WeatherDisplay:10.37,2013-01-22 03:20:00,
2013-01-21 22:25:00,18.9,17.0,29.83,NNE,24,0.0,0.0,92,0.00,,,0.00,WeatherDisplay:10.37,2013-01-22 03:25:00,
2013-01-21 22:30:00,18.9,17.0,29.83,NNE,24,0.0,0.0,92,0.00,,,0.00,WeatherDisplay:10.37,2013-01-22 03:30:00,
2013-01-21 22:35:00,18.9,17.0,29.82,NNE,24,0.0,0.0,92,0.00,,,0.00,WeatherDisplay:10.37,2013-01-22 03:35:00,
2013-01-21 22:40:00,19.0,16.8,29.82,NNE,24,0.0,0.0,91,0.00,,,0.00,WeatherDisplay:10.37,2013-01-22 03:40:00,
2013-01-21 22:45:00,19.0,16.8,29.82,NNE,24,0.0,0.0,91,0.00,,,0.00,WeatherDisplay:10.37,2013-01-22 03:45:00,
2013-01-21 22:50:00,19.0,16.8,29.82,NNE,24,0.0,0.0,91,0.00,,,0.00,WeatherDisplay:10.37,2013-01-22 03:50:00,
2013-01-21 22:55:00,19.1,16.9,29.82,NNE,24,0.0,0.0,91,0.00,,,0.00,WeatherDisplay:10.37,2013-01-22 03:55:00,
2013-01-21 23:00:00,19.1,16.9,29.81,NNE,24,0.0,0.0,91,0.00,,,0.00,WeatherDisplay:10.37,2013-01-22 04:00:00,
2013-01-21 23:05:00,19.1,16.9,29.81,NNE,24,0.0,0.0,91,0.00,,,0.00,WeatherDisplay:10.37,2013-01-22 04:05:00,
2013-01-21 23:10:00,19.1,16.9,29.81,NNE,24,0.0,0.0,91,0.00,,,0.00,WeatherDisplay:10.37,2013-01-22 04:10:00,
2013-01-21 23:15:00,19.2,17.0,29.80,NNE,24,0.0,0.0,91,0.00,,,0.00,WeatherDisplay:10.37,2013-01-22 04:15:00,
2013-01-21 23:20:00,19.2,17.0,29.80,NNE,24,0.0,0.0,91,0.00,,,0.00,WeatherDisplay:10.37,2013-01-22 04:20:00,
2013-01-21 23:25:00,19.3,17.1,29.80,NNE,24,0.0,0.0,91,0.00,,,0.00,WeatherDisplay:10.37,2013-01-22 04:25:00,
2013-01-21 23:30:00,19.3,17.1,29.80,NNE,24,0.0,0.0,91,0.00,,,0.00,WeatherDisplay:10.37,2013-01-22 04:30:00,
2013-01-21 23:35:00,19.4,17.2,29.80,NNE,24,0.0,0.0,91,0.00,,,0.00,WeatherDisplay:10.37,2013-01-22 04:35:00,
2013-01-21 23:40:00,19.4,17.2,29.80,NNE,24,0.0,0.0,91,0.00,,,0.00,WeatherDisplay:10.37,2013-01-22 04:40:00,
2013-01-21 23:45:00,19.4,17.2,29.80,NNE,24,0.0,0.0,91,0.00,,,0.00,WeatherDisplay:10.37,2013-01-22 04:45:00,
2013-01-21 23:50:00,19.5,17.3,29.79,NNE,24,0.0,0.0,91,0.00,,,0.00,WeatherDisplay:10.37,2013-01-22 04:50:00,
2013-01-21 23:55:00,19.5,17.3,29.79,NNE,24,0.0,0.0,91,0.00,,,0.00,WeatherDisplay:10.37,2013-01-22 04:55:00,